This is the latest recevied weather packets stored in our database for station/object DL3NDS-WX. If no packets are shown the sender has not sent any weather packets the latest 1 day(s).
| Time | Temp. | Humidity | Pressure | Rain* | Wind** | Luminosity | Snow |
|---|---|---|---|---|---|---|---|
| 1778005146 | 11.67° C | 88% | 1008.4 hPa | 8.38 mm | 0 m/s | 0 W/m² | - |
| 1778005085 | 11.67° C | 88% | 1008.4 hPa | 8.38 mm | 0.45 m/s, 34° | 0 W/m² | - |
| 1778005029 | 11.67° C | 88% | 1008.3 hPa | 8.13 mm | 0.45 m/s, 33° | 0 W/m² | - |
| 1778004963 | 11.67° C | 88% | 1008.3 hPa | 8.13 mm | 0.45 m/s, 22° | 0 W/m² | - |
| 1778004900 | 11.67° C | 88% | 1008.3 hPa | 8.13 mm | 0.45 m/s, 328° | 0 W/m² | - |
| 1778004836 | 11.67° C | 88% | 1008.4 hPa | 7.87 mm | 0.89 m/s, 288° | 0 W/m² | - |
| 1778004777 | 11.67° C | 88% | 1008.4 hPa | 7.87 mm | 1.34 m/s, 249° | 0 W/m² | - |
| 1778004716 | 11.67° C | 88% | 1008.4 hPa | 7.87 mm | 1.79 m/s, 305° | 0 W/m² | - |
| 1778004657 | 11.67° C | 88% | 1008.4 hPa | 7.87 mm | 2.68 m/s, 276° | 0 W/m² | - |
| 1778004595 | 11.67° C | 87% | 1008.3 hPa | 7.87 mm | 3.13 m/s, 299° | 0 W/m² | - |
| 1778004534 | 12.22° C | 87% | 1008.3 hPa | 7.87 mm | 2.68 m/s, 293° | 0 W/m² | - |
| 1778004472 | 12.22° C | 87% | 1008.3 hPa | 7.87 mm | 1.79 m/s, 258° | 0 W/m² | - |
| 1778004416 | 12.22° C | 87% | 1008.4 hPa | 7.62 mm | 2.24 m/s, 285° | 0 W/m² | - |
| 1778004350 | 12.22° C | 87% | 1008.4 hPa | 7.62 mm | 3.13 m/s, 284° | 0 W/m² | - |
| 1778004289 | 12.22° C | 87% | 1008.4 hPa | 7.62 mm | 3.58 m/s, 265° | 0 W/m² | - |
| 1778004227 | 12.22° C | 87% | 1008.4 hPa | 7.37 mm | 4.02 m/s, 268° | 0 W/m² | - |
| 1778004166 | 12.22° C | 87% | 1008.4 hPa | 7.37 mm | 3.58 m/s, 273° | 0 W/m² | - |
| 1778004105 | 12.22° C | 87% | 1008.3 hPa | 7.11 mm | 3.58 m/s, 265° | 0 W/m² | - |
| 1778004043 | 12.22° C | 86% | 1008.3 hPa | 7.11 mm | 3.58 m/s, 238° | 0 W/m² | - |
| 1778003982 | 12.22° C | 86% | 1008.4 hPa | 6.86 mm | 3.58 m/s, 274° | 0 W/m² | - |
| 1778003921 | 12.22° C | 86% | 1008.3 hPa | 6.86 mm | 3.58 m/s, 239° | 0 W/m² | - |
| 1778003859 | 12.22° C | 86% | 1008.2 hPa | 6.6 mm | 4.02 m/s, 293° | 0 W/m² | - |
| 1778003799 | 12.22° C | 86% | 1008.3 hPa | 6.35 mm | 4.92 m/s, 274° | 0 W/m² | - |
| 1778003736 | 12.22° C | 86% | 1008.2 hPa | 6.1 mm | 4.02 m/s, 278° | 0 W/m² | - |
| 1778003671 | 12.22° C | 85% | 1008.2 hPa | 6.1 mm | 3.58 m/s, 295° | 0 W/m² | - |
* Rain latest hour (hover to see other rain measurements)
** Current wind speed in m/s (hover to see current wind gust speed)